Location: Caltech
(34.1382°N, 118.1253°W)
Time: 11:59:17
(UTC-07:00)

CZ-4B DEB - Visible Passes

Search period start: 02 September 2015 00:00
Search period end: 12 September 2015 00:00
Orbit: 841 x 864 km, 98.9° (Epoch: 02 September)

Date Brightness Start Highest point End Pass type
(mag) Time Alt. Az. Time Alt. Az. Time Alt. Az.
02 Sep 6.5 03:14:50 10° NE 03:18:09 17° E 03:19:58 15° ESE visible
02 Sep 4.4 04:53:57 10° N 04:59:15 51° WNW 05:02:00 27° SW visible
03 Sep 6.7 03:04:35 10° ENE 03:06:45 13° E 03:08:31 11° ESE visible
03 Sep 4.1 04:42:37 10° N 04:48:03 66° WNW 04:50:34 32° SW visible
04 Sep 4.1 04:31:20 10° NNE 04:36:49 84° WNW 04:39:07 37° SSW visible
05 Sep 4.2 04:20:06 10° NNE 04:25:35 76° ESE 04:27:39 40° S visible
05 Sep 6.0 06:03:28 10° NW 06:05:46 12° WNW 06:07:44 10° W visible
06 Sep 4.6 04:08:56 10° NNE 04:14:20 59° E 04:16:12 39° SSE visible
06 Sep 5.8 05:51:19 10° NNW 05:54:39 16° WNW 05:57:43 10° W visible
07 Sep 5.0 03:57:49 10° NNE 04:03:03 46° E 04:04:45 35° SE visible
07 Sep 5.5 05:39:31 10° NNW 05:43:30 20° WNW 05:46:47 12° WSW visible
08 Sep 5.5 03:46:48 10° NNE 03:51:45 35° E 03:53:17 30° SE visible
08 Sep 5.3 05:27:52 10° NNW 05:32:21 26° WNW 05:35:19 16° WSW visible
09 Sep 5.8 03:35:51 10° NE 03:40:26 28° E 03:41:50 25° ESE visible
09 Sep 5.0 05:16:20 10° N 05:21:11 32° WNW 05:23:52 21° WSW visible
10 Sep 6.2 03:25:02 10° NE 03:29:05 22° E 03:30:22 20° ESE visible
10 Sep 4.6 05:04:52 10° N 05:10:00 41° WNW 05:12:24 27° WSW visible
11 Sep 6.5 03:14:24 10° NE 03:17:42 17° E 03:18:54 16° ESE visible
11 Sep 4.3 04:53:29 10° N 04:58:48 52° WNW 05:00:57 33° SW visible
